Regional Weather Roundup
Issued by NWS Cleveland, OH

Home | Current Version | Previous Version | Graphics & Text | Print | Product List | Glossary On
Versions: 1 2 3 4 5 6 7 8 9 10 11 12 13 14 15 16 17 18 19 20 21 22 23 24 25 26 27 28 29 30 31 32 33 34 35 36 37 38 39 40 41 42 43 44 45 46 47 48 49 50
000
ASUS41 KCLE 022110
RWRCLE
OHIO REGIONAL WEATHER ROUNDUP
NATIONAL WEATHER SERVICE CLEVELAND, OH
400 PM EST MON MAR 02 2015

NOTE: "FAIR" INDICATES FEW OR NO CLOUDS BELOW 12,000 FEET WITH NO
SIGNIFICANT WEATHER AND/OR OBSTRUCTIONS TO VISIBILITY.

OHZ001>008-015>018-024>027-034-035-043-044-022200-
   NORTHWEST OHIO

CITY           SKY/WX    TMP DP  RH WIND       PRES   REMARKS
DEFIANCE       SUNNY     29  15  56 SW7       30.46F WCI  22
FINDLAY        SUNNY     24  16  71 SW6       30.45F WCI  17
TOLEDO EXPRESS SUNNY     28  16  60 W12       30.45F WCI  18
TOLEDO EXEC    SUNNY     29  14  53 W9        30.46F WCI  20
LIMA           SUNNY     26  14  60 NW5       30.44F WCI  20
$$

OHZ009>014-019>023-028>033-038-089-022200-
   NORTHEAST OHIO

CITY           SKY/WX    TMP DP  RH WIND       PRES   REMARKS
CLE-HOPKINS    MOSUNNY   28  11  48 W13       30.48R WCI  17
CLE-LAKEFRONT  SUNNY     25  17  72 W12       30.46R WCI  14
CUY CO. ARPT   MOSUNNY   27  16  63 W16       30.46R WCI  14
LORAIN-ELYRIA  SUNNY     26  11  52 W9        30.46R WCI  17
ASHTABULA      SUNNY     25   8  48 NW13      30.43R WCI  14
AKRON-CANTON   PTSUNNY   27  12  53 W8G18     30.42R WCI  19
WOOSTER        SUNNY     25  11  55 W10       30.44R WCI  15
MANSFIELD      SUNNY     25  10  53 NW8       30.43S WCI  16
YOUNGSTOWN     MOSUNNY   29  10  45 NW10      30.39S WCI  20
$$

OHZ042-051>053-060>062-070>072-077>081-022200-
  SOUTHWEST OHIO

CITY           SKY/WX    TMP DP  RH WIND       PRES   REMARKS
CINC-COVINGTON PTSUNNY   35  14  42 N3        30.44S
CINC-LUNKEN    MOSUNNY   33  16  49 NE8       30.47F WCI  26
HAMILTON       MOSUNNY   33  14  45 CALM      30.47F
DAYTON         PTSUNNY   29  13  51 N5        30.45F WCI  24
WRIGHT-PAT AFB MOSUNNY   29  12  49 N6        30.45F WCI  23
DAYTON GENERAL SUNNY     32  14  47 CALM      30.44S
WILMINGTON     MOSUNNY   26  12  55 E6        30.44S WCI  19
$$

OHZ036-037-039>041-045>050-054>059-063>069-073>076-082>088-022200-
  CENTRAL AND SOUTHEAST OHIO

CITY           SKY/WX    TMP DP  RH WIND       PRES   REMARKS
COLUMBUS       PTSUNNY   29  11  47 NW8       30.44F WCI  21
OSU AIRPORT    SUNNY     28  11  48 N9        30.44F WCI  19
BOLTON FIELD   SUNNY     28  14  54 NW6       30.45F WCI  22
RICKENBACK AFB MOSUNNY   29  14  52 W5        30.45F WCI  24
NEWARK         SUNNY     30  13  49 NW7       30.44F WCI  23
MARION         SUNNY     27  12  53 N5        30.46S WCI  22
LANCASTER      SUNNY     31  16  54 NE5       30.45F WCI  26
ZANESVILLE     SUNNY     30  11  45 NW10      30.44S WCI  21
NEW PHILLY     SUNNY     31  11  43 W8        30.45S WCI  23
$$


USA.gov is the U.S. government's official web portal to all federal, state and local government web resources and services.